Location: B�di�
(14.6834°N, 3.1047°W)
Time: 13:20:06
(UTC+00:00)

CZ-4C R/B - Pass Details

Date: 24 January 2020
Orbit: 644 x 1358 km, 63.4° (Epoch: 23 February)

Event Time Altitude Azimuth Distance (km) Brightness Sun altitude
Rises 19:04:16 0° 328° (NNW) 4,194 6.0 -14.0°
Reaches altitude 10° 19:07:02 10° 324° (NW) 3,290 5.5 -14.6°
Maximum altitude 19:15:01 58° 248° (WSW) 1,545 3.8 -16.4°
Drops below altitude 10° 19:23:15 10° 171° (S) 3,376 5.4 -18.4°
Sets 19:26:08 0° 167° (SSE) 4,309 5.9 -19.0°
